This is the latest recevied weather packets stored in our database for station/object N5ZKK. If no packets are shown the sender has not sent any weather packets the latest 10 day(s).
| Time | Temp. | Humidity | Pressure | Rain* | Wind** | Luminosity | Snow |
|---|---|---|---|---|---|---|---|
| 1777559941 | 15° C | 99% | 1015.2 hPa | 0 mm | - | - | - |
| 1777558141 | 15° C | 99% | 1015.3 hPa | 0 mm | - | - | - |
| 1777556341 | 15° C | 99% | 1015.1 hPa | 0 mm | - | - | - |
| 1777554541 | 15° C | 99% | 1014.9 hPa | 0.25 mm | - | - | - |
| 1777552741 | 14.44° C | 99% | 1015.2 hPa | 0.25 mm | - | - | - |
| 1777550941 | 13.89° C | 99% | 1015.4 hPa | 0 mm | - | - | - |
| 1777549141 | 13.89° C | 99% | 1014.8 hPa | 0 mm | - | - | - |
| 1777547341 | 14.44° C | 99% | 1014.3 hPa | 0 mm | - | - | - |
| 1777545541 | 14.44° C | 99% | 1013.7 hPa | 0 mm | - | - | - |
| 1777543741 | 14.44° C | 99% | 1013.6 hPa | 0 mm | - | - | - |
| 1777541941 | 15° C | 99% | 1013.8 hPa | 0 mm | - | - | - |
| 1777540141 | 15° C | 99% | 1014.7 hPa | 0 mm | - | - | - |
| 1777538341 | 15° C | 99% | 1014.7 hPa | 0 mm | - | - | - |
| 1777536541 | 15.56° C | 99% | 1015 hPa | 0 mm | - | - | - |
| 1777534741 | 15.56° C | 99% | 1014 hPa | 0 mm | - | - | - |
| 1777532941 | 15.56° C | 99% | 1015 hPa | 0 mm | - | - | - |
| 1777531141 | 15.56° C | 99% | 1015.5 hPa | 0 mm | - | - | - |
| 1777529341 | 16.11° C | 97% | 1015.2 hPa | 0 mm | - | - | - |
| 1777527541 | 16.67° C | 96% | 1014.9 hPa | 0 mm | - | - | - |
| 1777525741 | 17.22° C | 95% | 1015 hPa | 0 mm | - | - | - |
| 1777523941 | 17.22° C | 94% | 1015.8 hPa | 0 mm | - | - | - |
| 1777522141 | 17.78° C | 94% | 1015.8 hPa | 0 mm | - | - | - |
| 1777520341 | 17.78° C | 94% | 1015.4 hPa | 0 mm | - | - | - |
| 1777518541 | 18.33° C | 94% | 1014.7 hPa | 0 mm | - | - | - |
| 1777516741 | 18.33° C | 95% | 1014.1 hPa | 0 mm | - | - | - |
* Rain latest hour (hover to see other rain measurements)
** Current wind speed in m/s (hover to see current wind gust speed)